Location: Unspecified
(38.6830°S, 0.0000°E)
Time: 11:36:28
(UTC+00:00)

Envisat - Pass Details

Date: 28 May 2019
Orbit: 764 x 766 km, 98.1° (Epoch: 20 June)

Event Time Altitude Azimuth Distance (km) Brightness Sun altitude
Exits shadow 18:37:50 20° 41° (NE) 1,743 4.6 -20.9°
Drops below altitude 10° 18:39:43 10° 25° (NNE) 2,308 5.3 -21.3°
Sets 18:42:17 0° 13° (NNE) 3,225 6.2 -21.8°
